Regional Weather Roundup
Issued by NWS

Home | Current Version | Previous Version | Graphics & Text | Print | Product List | Glossary On
Versions: 1 2 3 4 5 6 7 8 9 10 11 12 13 14 15 16 17 18 19 20 21 22 23 24 25 26 27 28 29 30 31 32 33 34 35 36 37 38 39 40 41 42 43 44 45 46 47 48 49 50
000
ASUS43 KMPX 232001
RWRMN
WEATHER ROUNDUP FOR MINNESOTA
NATIONAL WEATHER SERVICE TWIN CITIES/CHANHASSEN MN
300 PM CDT SAT MAY 23 2015


NOTE: "FAIR" INDICATES FEW OR NO CLOUDS BELOW 12,000 FEET WITH NO
SIGNIFICANT WEATHER AND/OR OBSTRUCTIONS TO VISIBILITY. N/A MEANS
CURRENT SKY AND/OR WEATHER CONDITIONS ARE NOT AVAILABLE.

MNZ060>063-068>070-232100-
   Twin Cities Metro

CITY           SKY/WX    TMP DP  RH WIND       PRES   REMARKS
TWIN CITIES    CLOUDY    73  41  31 VRB3      30.21F
ST PAUL        CLOUDY    73  44  35 NE5       30.21F
CRYSTAL        CLOUDY    69  49  48 N6        30.21
BLAINE         DRIZZLE   68  48  49 N10       30.22S
LAKEVILLE      PTSUNNY   72  43  35 SE8       30.21S
EDEN PRAIRIE   CLOUDY    71  44  37 S10       30.20S
SOUTH ST PAUL  CLOUDY    73  41  31 CALM      30.20F
LAKE ELMO      PTSUNNY   72  45  37 NE6       30.22S
$$
MNZ001>005-007-008-013>017-022>024-027-028-232100-
   Northwest Minnesota

CITY           SKY/WX    TMP DP  RH WIND       PRES   REMARKS
BEMIDJI        PTSUNNY   74  41  30 SW8       30.15F
HALLOCK        SUNNY     77  30  18 S6        30.09F
ROSEAU         SUNNY     79  36  21 SW10G16   30.11F
WARROAD        SUNNY     77  43  29 S8G17     30.12S
THIEF RVR FALL MOSUNNY   75  39  27 SW17      30.13F
CROOKSTON      SUNNY     77  43  29 SW18G25   30.13S
FOSSTON        MOSUNNY   73  43  33 S12       30.16S
DETROIT LAKES  SUNNY     70  43  37 SW13      30.19S
MOORHEAD       SUNNY     72  43  35 S10G20    30.16F
PARK RAPIDS    MOSUNNY   73  41  31 VRB7G21   30.18S
MAHNOMEN       FAIR      72  42  34 S10G16    30.16F
$$
MNZ006-009>011-018-025>026-232100-
   North Central Minnesota

CITY           SKY/WX    TMP DP  RH WIND       PRES   REMARKS
BAUDETTE       MOSUNNY   78  37  22 S17       30.12F
FLAG ISLAND    SUNNY     64  46  52 S15       30.09S
INTL FALLS     MOSUNNY   79  35  20 SW12G17   30.12F
WASKISH        SUNNY     72  54  53 CALM      30.14F
BIG FORK       SUNNY     79  37  22 S9        30.15S
LONGVILLE      SUNNY     75  39  27 SW10      30.18S
GRAND RAPIDS   SUNNY     73  36  25 S9        30.17S
CRANE LAKE     MOSUNNY   75  34  22 CALM      30.14F
ORR            MOSUNNY   79  30  17 CALM      30.12F
COOK           MOSUNNY   75  36  23 W9        30.15S
WALKER         MOCLDY    73  41  30 S3        30.16F
$$
MNZ012-019>021-037-232100-
   Northeast Minnesota

CITY           SKY/WX    TMP DP  RH WIND       PRES   REMARKS
DULUTH         MOSUNNY   76  33  21 VRB6G20   30.17F
ELY            MOSUNNY   75  34  22 SW5       30.14F
HIBBING        MOSUNNY   76  32  20 VRB5      30.15F
EVELETH        SUNNY     77  34  20 S7        30.16F
DULUTH HARBOR  SUNNY     72  41  33 E6        30.16S
TWO HARBORS    SUNNY     81  46  30 S15G23    30.15S
SILVER BAY     SUNNY     79  36  21 S17       30.14S
GRAND MARAIS     N/A     57  38  48 W12       30.13F
G MARAIS ARPRT MOSUNNY   70  34  26 S15G22    30.17S
$$
MNZ029>031-032-039>041-046>048-054>057-064-232100-
   West Central Minnesota

CITY           SKY/WX    TMP DP  RH WIND       PRES   REMARKS
FERGUS FALLS   PTSUNNY   70  43  37 SE15      30.18F
WHEATON        PTSUNNY   68  45  42 SE16      30.18S
MORRIS         PTSUNNY   70  45  40 S15G22    30.18S
ALEXANDRIA     PTSUNNY   66  43  43 S9G22     30.21F
ELBOW LAKE     CLOUDY    67  43  42 S15       30.18F
WADENA         MOSUNNY   68  45  42 S10G17    30.20S
GLENWOOD       CLOUDY    68  43  40 S14G20    30.21F
APPLETON       PTSUNNY   70  46  43 S7G18     30.17F
BENSON         CLOUDY    68  43  40 S9        30.20S
ORTONVILLE     CLOUDY    66  46  48 SE10      30.17S
MADISON        CLOUDY    66  46  48 S17G23    30.17S
WILLMAR        FAIR      66  46  48 SE8       30.22S
$$
MNZ033>034-036-042>043-049>051-058-059-232100-
   Central Minnesota

CITY           SKY/WX    TMP DP  RH WIND       PRES   REMARKS
ST CLOUD       CLOUDY    64  46  52 VRB3      30.23F
SAUK CENTRE    CLOUDY    67  43  42 SE12      30.22S
PAYNESVILLE    CLOUDY    62  43  49 E9        30.23S
AITKIN         PTSUNNY   72  39  30 SW9       30.18S
PINE RIVER     MOSUNNY   72  46  40 SW12G21   30.21S
BRAINERD       MOSUNNY   71  42  35 SW14G23   30.21S
STAPLES        PTSUNNY   70  43  37 SW15      30.21S
LONG PRAIRIE   CLOUDY    64  43  45 SE10G16   30.22S
LITTLE FALLS   PTSUNNY   70  37  30 S10       30.23S
LITCHFIELD     CLOUDY    64  48  55 E6        30.23S
BUFFALO        CLOUDY    63  52  67 N6        30.23F
MAPLE LAKE     LGT RAIN  64  52  66 N3        30.24F
$$
MNZ037-044-045-052-053-232100-
   East Central Minnesota

CITY           SKY/WX    TMP DP  RH WIND       PRES   REMARKS
PRINCETON      LGT RAIN  66  48  52 NW5       30.24F
MORA           PTSUNNY   68  41  37 SW12      30.24F
CAMBRIDGE      CLOUDY    68  52  56 W3        30.21F
RUSH CITY      CLOUDY    64  50  61 CALM      30.25R
MOOSE LAKE     MOSUNNY   73  45  35 SW8G18    30.17S
HINCKLEY       FAIR      70  43  37 S13       30.22S
CLOQUET        MOSUNNY   73  28  19 MISG      30.17F
MCGREGOR       PTSUNNY   72  43  35 S13G20    30.19S
$$
MNZ071>073-080-081-089-090-097-098-232100-
   Southwest Minnesota

CITY           SKY/WX    TMP DP  RH WIND       PRES   REMARKS
MONTEVIDEO     PTSUNNY   68  46  45 S9        30.19F
GRANITE FALLS  CLOUDY    66  48  52 E10       30.20S
CANBY          CLOUDY    66  51  57 SE10      30.17F
MARSHALL       CLOUDY    68  45  42 S16       30.16F
REDWOOD FALLS  CLOUDY    69  48  47 SE14      30.18F
OLIVIA         CLOUDY    63  46  55 E7        30.19F
PIPESTONE      CLOUDY    66  48  52 S9G17     30.15F
WINDOM         CLOUDY    70  45  40 SE9G16    30.17F
WORTHINGTON    CLOUDY    68  43  40 S14       30.16F
JACKSON        CLOUDY    72  46  40 SE13      30.18S
TRACY          CLOUDY    68  49  49 S8        30.17F
SLAYTON        CLOUDY    69  44  41 SE12      30.16F
$$
MNZ065>067-074>077-082>085-091>093-232100-
   South Central Minnesota

CITY           SKY/WX    TMP DP  RH WIND       PRES   REMARKS
MANKATO        CLOUDY    72  43  35 SE13      30.20S
NEW ULM        PTSUNNY   70  43  37 E6        30.18F
ST JAMES       PTSUNNY   73  45  35 SE15      30.18F
FAIRMONT       CLOUDY    72  41  33 S21       30.17S
GLENCOE        CLOUDY    67  52  58 N9        30.21S
FARIBAULT      PTSUNNY   72  43  35 SE6       30.21S
OWATONNA       PTSUNNY   73  39  29 SE5       30.20S
WASECA         CLOUDY    72  43  35 SE7       30.21S
ALBERT LEA     PTSUNNY   73  39  29 SE10      30.19F
$$
MNZ078>079-086>088-094>096-232100-
   Southeast Minnesota

CITY           SKY/WX    TMP DP  RH WIND       PRES   REMARKS
ROCHESTER      PTSUNNY   75  40  28 S10       30.21F
RED WING       PTSUNNY   75  39  27 SE7       30.20S
STANTON        CLOUDY    74  40  29 E5        30.19F
DODGE CENTER   MOSUNNY   75  41  29 SE13      30.20F
WINONA         MOSUNNY   73  45  35 NE3       30.21F
AUSTIN         PTSUNNY   72  45  37 S10       30.20S
PRESTON        CLOUDY    73  40  29 S12       30.21F
$$
ABBREVIATIONS USED IN REMARKS
   TC - TEMPERATURES IN CELSIUS
  WCI - WIND CHILL INDEX
   HX - HEAT INDEX
  VSB - VISIBILITY
$$


USA.gov is the U.S. government's official web portal to all federal, state and local government web resources and services.